Dewpoint
69 68 68 67 68 63 63 63 58 59 57 53 58 56 54 62 60 61 61 62 61 64 64 60 59 60 60 58 58 57 58 59 60 54 57 66 70 69 68 70 70 71 71 72 73 75 76 76 76 76 77 77 77 77 76 76 76 76 76 76 76 76 76 76 75 76 76 75 75 75 75 75 74 74 75 76 75 76 75 75 75 75 74 74 74 75 74 74 74 73 73 74 74 74 74 74 74
65 66 65 65 64 63 60 63 58 58 56 56 59 60 60 61 61 60 59 62 62 63 60 59 59 58 58 57 55 55 57 60 63 63 66 67 68 68 68 69 71 69 68 70 70 70 72 76 77 76 76 76 76 76 76 76 76 75 75 76 76 76 76 76 76 76 76 76 75 75 74 74 74 75 75 75 75 75 75 75 74 75 75 75 74 75 74 74 74 74 74 74 74 74 75 75 74
65 66 64 64 63 62 66 62 57 56 55 52 56 57 61 61 60 60 63 63 64 64 59 59 59 59 60 57 58 58 57 61 63 64 65 67 67 68 68 68 70 70 68 68 69 69 71 75 77 77 76 76 76 76 76 76 76 76 76 76 75 75 76 75 76 76 76 76 75 75 75 75 74 75 75 74 75 75 75 74 75 75 75 75 75 74 75 75 75 75 74 74 74 74 74 74 74
65 65 63 63 62 64 63 59 57 56 52 52 56 61 59 57 58 61 61 62 61 59 58 59 61 58 61 58 57 58 56 60 63 64 65 66 66 66 66 69 71 68 67 67 67 69 72 76 77 77 76 76 76 76 76 76 76 76 76 76 75 75 75 75 75 75 75 76 76 75 74 75 75 75 75 75 75 74 74 75 75 75 75 75 74 74 75 75 75 75 74 75 74 74 75 74 74
69 65 63 62 63 62 61 59 58 61 54 55 53 59 59 59 61 63 63 61 59 59 58 60 59 62 61 59 56 58 59 62 64 64 63 65 66 65 66 68 69 66 66 67 67 70 73 77 77 76 76 75 76 76 76 76 75 75 76 76 75 75 75 76 75 74 74 76 75 74 75 74 76 76 75 75 74 74 74 75 75 76 75 75 74 74 75 74 75 74 75 75 75 75 74 74 75
69 63 64 65 65 67 64 60 57 56 60 57 57 56 58 59 59 60 60 59 59 59 59 61 59 59 61 60 60 58 58 63 61 63 65 65 65 66 66 68 66 65 65 67 68 70 72 77 76 76 75 76 76 76 76 76 76 76 76 76 75 75 76 75 75 75 74 74 74 75 75 74 75 75 75 75 75 74 75 75 75 75 75 75 75 75 75 75 74 74 74 75 75 74 74 74 74
64 63 63 64 64 65 59 58 58 56 52 63 58 61 60 59 58 60 59 59 61 60 60 60 59 60 58 61 61 62 61 61 64 63 64 65 65 66 66 65 64 65 65 67 68 69 72 76 76 75 75 76 75 76 76 76 76 76 76 76 75 75 75 75 75 75 74 74 75 75 74 74 75 75 75 74 75 75 75 75 74 74 75 74 75 75 75 75 75 75 74 74 74 74 73 74 75
65 62 63 61 61 61 58 58 57 53 52 55 57 58 60 58 59 60 58 58 58 57 61 62 62 62 60 61 60 61 60 63 64 64 65 65 65 65 65 64 64 63 64 66 68 71 77 76 76 75 75 76 76 76 76 76 76 76 76 76 75 76 76 75 75 75 75 75 75 75 75 74 74 75 75 74 74 74 75 75 74 75 75 74 74 75 75 75 75 75 74 74 74 74 74 75 75
64 63 65 62 60 61 58 58 55 53 54 56 58 60 63 63 62 61 59 59 58 57 62 60 61 60 62 62 61 61 61 63 66 64 65 65 64 64 63 63 62 62 63 65 69 72 73 76 75 75 75 76 75 76 76 75 76 76 76 76 76 75 76 75 75 75 75 75 75 75 75 75 74 75 75 75 75 74 74 74 74 74 74 75 75 74 74 75 74 74 74 74 74 74 74 75 75
64 64 64 61 60 55 54 53 50 56 57 58 58 61 64 63 61 61 57 56 57 59 62 60 62 62 63 59 60 60 61 65 65 64 65 64 63 63 63 61 60 61 63 66 67 70 72 77 75 75 75 75 76 76 76 76 76 76 76 76 76 76 75 75 74 74 75 75 74 74 74 74 75 75 75 75 75 75 75 75 75 74 74 74 74 74 74 74 74 74 73 74 74 74 74 74 74
62 64 64 61 58 56 54 52 55 54 56 58 59 62 61 62 60 58 62 59 57 60 58 62 61 61 63 62 61 60 64 65 64 64 65 63 63 63 62 62 60 60 63 63 66 70 72 74 76 75 75 75 76 76 76 76 76 76 76 75 75 75 74 75 75 75 75 75 74 74 74 75 75 75 75 75 74 75 75 74 75 75 75 74 74 74 74 74 74 74 74 73 74 74 73 73 74
63 63 64 58 57 59 51 55 57 52 57 59 58 59 59 61 62 59 59 58 58 59 59 60 63 63 61 62 62 61 63 63 65 65 65 63 62 61 62 59 59 61 60 61 66 69 71 74 75 76 76 76 76 76 76 75 75 76 75 75 75 75 74 74 74 74 74 74 74 74 74 74 75 75 75 75 74 75 75 75 74 75 74 74 74 74 74 74 74 74 74 73 73 73 73 73 73
62 64 61 59 56 57 49 51 48 52 54 55 57 59 59 60 61 59 63 57 61 59 64 65 66 64 61 62 62 60 60 64 65 65 65 63 62 61 61 58 60 60 58 62 62 67 70 71 72 74 75 77 76 76 76 76 76 75 76 75 75 74 75 75 74 74 74 74 74 75 74 74 74 74 74 75 75 75 75 74 74 74 74 74 74 74 74 74 74 74 74 73 73 73 72 73 74
62 63 64 57 57 52 51 55 55 53 55 55 57 59 59 58 58 60 60 58 59 62 63 63 65 61 62 61 61 58 61 64 65 66 64 64 62 61 59 58 60 59 60 60 63 65 68 69 69 73 76 76 76 77 76 76 76 76 76 76 75 75 75 75 75 75 74 74 74 74 74 74 75 75 75 75 75 75 75 75 74 74 74 74 74 74 75 75 74 74 74 73 73 73 73 73 74
61 63 63 61 54 50 50 53 57 49 56 57 54 57 58 58 57 57 56 58 63 66 64 63 62 62 61 59 60 57 60 64 66 65 64 64 62 61 60 59 59 59 58 59 61 63 64 66 68 73 74 73 75 74 75 76 76 76 76 76 75 75 75 75 75 75 75 75 74 75 74 75 74 75 75 76 75 75 75 75 74 74 74 74 74 74 74 75 74 75 74 73 73 73 73 73 73
62 63 66 59 55 56 51 58 54 55 52 54 56 57 59 58 58 56 62 66 59 60 59 62 60 59 62 59 58 58 61 63 64 64 65 64 63 61 59 60 59 59 60 60 60 62 62 65 68 70 73 74 74 75 75 77 76 76 76 75 75 75 75 75 75 74 75 75 75 75 75 75 75 74 75 75 75 75 74 74 74 74 74 74 74 74 74 74 75 74 73 74 73 73 73 73 74
62 62 60 57 52 51 55 51 49 50 53 54 56 57 55 56 57 57 60 60 57 57 59 59 62 59 59 59 58 57 60 62 64 64 65 66 65 62 62 62 61 60 60 60 61 61 61 65 68 69 72 75 74 74 75 76 76 76 75 75 75 75 75 75 75 75 74 75 76 76 75 75 75 76 76 74 75 75 74 74 75 74 74 74 74 74 74 74 74 74 73 74 73 73 73 73 74
63 60 59 55 59 57 54 59 50 56 58 52 55 56 55 54 56 56 57 57 57 57 58 58 58 59 62 60 57 58 60 61 62 64 64 65 65 64 63 62 60 60 60 61 63 62 62 65 67 69 71 72 74 74 75 75 75 75 74 75 75 76 76 75 76 74 75 75 75 75 76 76 76 75 75 75 75 75 75 75 75 75 75 74 74 74 74 74 73 73 73 74 74 74 74 74 74
59 58 58 56 57 57 55 55 50 54 55 53 55 55 54 54 56 54 56 55 55 57 57 58 58 60 61 60 57 58 59 60 60 61 63 64 64 64 63 63 61 60 60 61 63 62 64 65 66 68 70 74 72 72 73 73 74 74 74 74 74 74 75 76 75 74 75 75 76 75 76 75 74 75 75 75 75 74 74 74 74 75 75 75 75 75 74 74 73 73 74 74 74 74 74 73 72
57 57 54 50 56 62 54 51 52 51 52 52 54 54 54 55 55 53 55 54 55 56 55 57 58 58 60 59 56 57 60 58 60 60 61 63 63 63 63 61 60 61 60 61 63 65 64 64 65 68 71 72 72 72 71 74 74 74 73 72 72 72 74 75 76 75 76 76 76 75 75 75 75 76 76 77 76 74 74 74 75 75 75 75 74 74 74 74 74 74 74 74 74 73 73 72 71
52 55 51 57 57 53 51 53 52 52 53 52 53 54 55 53 55 53 58 55 54 55 56 57 56 56 60 59 57 57 58 57 59 60 59 63 63 62 61 60 60 61 61 61 64 66 67 64 64 68 70 73 73 72 74 74 75 71 70 69 70 70 71 73 75 74 75 76 75 75 76 74 73 75 76 75 75 74 74 74 74 74 74 74 74 74 73 75 74 74 73 74 73 74 72 72 73
51 51 49 52 56 50 53 54 53 52 53 53 54 51 53 53 56 53 54 61 58 53 56 58 58 57 59 59 58 58 58 57 56 58 59 60 61 61 61 59 59 60 61 61 63 65 65 65 64 66 69 72 73 71 71 73 75 70 69 67 68 70 71 72 73 73 73 73 75 73 75 75 76 75 74 74 74 75 75 75 74 74 74 74 74 74 73 73 72 74 74 73 73 72 72 73 73
49 51 51 51 51 58 59 54 54 53 52 52 51 52 54 53 54 54 55 53 54 56 58 58 58 58 60 59 58 57 58 58 56 57 58 59 60 61 60 58 59 60 60 61 63 65 66 65 65 65 65 70 73 73 73 74 72 70 68 67 67 68 69 70 70 69 72 73 71 70 72 74 75 76 75 74 74 74 74 76 75 75 74 74 74 74 74 74 73 73 74 74 73 72 72 74 76
51 48 50 50 49 51 56 54 55 53 51 53 53 54 53 52 52 54 54 54 57 56 56 59 58 58 59 58 59 57 58 58 57 56 57 59 60 60 60 59 59 60 61 61 62 62 65 64 67 64 66 68 71 73 74 70 71 68 66 68 67 67 68 68 68 69 73 75 72 71 70 74 75 74 74 74 72 72 73 74 75 74 75 75 76 75 74 73 73 74 75 73 73 74 69 71 69
47 47 49 51 53 53 54 55 55 54 53 53 52 51 51 52 51 52 54 54 56 56 57 57 58 58 59 59 58 58 58 59 58 57 57 59 59 60 61 61 59 61 60 62 61 60 62 64 67 64 65 69 70 70 70 70 70 68 66 64 66 69 68 68 68 72 72 72 74 74 74 72 72 76 75 73 73 73 74 75 75 75 74 75 75 74 75 75 74 74 75 74 74 75 72 73 70
45 46 46 46 47 51 54 54 54 53 52 52 51 50 50 51 52 51 53 54 55 57 58 58 59 59 59 59 59 58 59 58 58 57 57 57 57 59 60 61 60 61 60 62 60 60 61 63 65 65 65 67 68 68 70 69 69 66 67 67 70 68 68 70 72 68 71 72 71 75 72 70 70 74 74 75 74 74 74 73 74 74 74 76 75 74 74 74 73 74 74 75 74 75 73 73 72
42 42 42 42 45 48 50 51 53 52 52 52 50 49 49 50 51 48 52 53 56 57 58 59 59 58 59 59 59 59 58 58 58 57 57 58 58 59 59 60 60 61 61 61 59 61 61 62 64 67 65 68 67 67 69 70 70 68 68 68 70 69 71 73 71 71 70 70 73 76 76 76 71 76 76 76 75 73 75 74 74 73 73 74 75 75 75 75 74 75 75 76 74 75 75 72 72
39 41 43 44 43 44 46 50 51 51 51 52 54 50 51 48 48 48 50 53 56 56 58 59 59 59 59 59 59 60 59 59 59 58 57 59 58 58 59 61 60 61 61 60 60 61 59 60 63 66 66 67 67 65 69 69 70 69 70 70 68 70 72 71 71 70 70 71 73 74 75 74 77 77 75 74 75 76 74 74 74 73 74 75 76 74 74 74 75 74 75 77 75 77 75 74 76
38 37 33 38 42 40 42 43 47 50 50 51 50 47 46 46 45 48 50 54 55 56 58 58 59 59 59 60 59 60 59 59 59 59 58 59 59 59 59 60 60 60 61 60 61 59 57 60 63 66 66 69 67 64 67 68 69 68 70 69 69 68 71 71 69 69 72 74 75 75 76 77 77 76 77 75 76 75 74 75 74 73 75 75 75 74 73 73 74 74 74 75 75 74 73 73 71
31 35 35 36 36 35 35 38 40 45 48 49 48 45 49 46 46 47 51 54 54 55 57 57 59 59 60 59 59 60 59 59 59 59 59 59 59 59 59 59 60 60 61 62 61 58 58 59 62 63 66 67 67 63 68 67 69 68 70 68 70 70 68 68 69 71 71 72 74 75 75 77 77 77 77 77 78 77 75 75 76 75 75 76 75 76 77 76 75 74 74 74 73 71 69 71 73
28 32 33 31 29 28 31 35 39 41 46 47 46 44 45 45 45 46 52 53 52 54 55 56 58 58 59 59 59 59 59 60 59 59 59 60 59 60 60 59 60 61 62 61 61 58 58 60 61 62 66 67 68 65 67 67 67 65 67 68 69 69 68 67 67 70 70 71 73 73 75 77 79 79 77 78 79 75 76 75 76 76 75 77 76 76 76 74 72 74 74 72 73 68 68 70 70
22 23 25 26 25 25 27 31 36 40 44 46 45 43 47 44 45 45 52 52 51 54 55 55 57 58 59 59 59 59 59 58 59 58 59 60 60 60 60 60 60 60 62 62 61 58 57 60 63 62 65 67 67 67 69 69 67 66 68 69 69 69 67 67 67 69 69 70 71 72 76 77 77 79 78 77 77 78 76 75 77 76 77 77 75 75 77 72 73 73 71 70 69 66 67 67 68
22 22 22 22 22 23 24 27 32 39 43 44 44 43 43 44 48 48 51 51 50 52 54 55 56 58 59 59 59 59 59 59 59 58 59 60 60 60 61 61 61 62 61 61 62 59 58 59 64 61 64 66 67 68 71 71 69 68 68 67 66 68 67 67 67 69 69 70 69 71 74 76 78 77 80 77 77 76 78 75 74 77 77 77 77 75 72 73 73 71 73 70 67 67 61 60 63
14 20 20 22 21 21 22 29 34 40 41 42 44 43 47 49 45 45 49 50 50 51 52 54 56 57 59 59 59 59 59 59 58 59 58 59 60 60 60 64 62 62 63 61 62 59 59 61 63 63 65 65 68 70 72 71 71 71 70 67 70 66 68 66 67 69 70 69 69 72 74 75 78 79 79 79 79 76 77 75 76 77 77 78 76 74 74 73 74 72 71 68 65 64 61 60 61
10 16 20 20 21 21 21 25 35 37 40 40 43 43 43 51 50 48 48 48 49 51 52 53 55 56 58 58 59 60 60 60 59 59 58 58 59 60 60 62 62 62 62 61 64 62 62 63 64 65 65 66 69 71 73 72 71 73 69 69 68 68 70 68 67 67 67 70 67 73 76 75 76 78 79 79 78 79 74 77 77 77 77 78 77 74 73 74 74 73 68 69 68 64 62 63 63
7 12 17 20 20 20 21 22 32 36 36 38 41 42 42 43 48 49 49 48 49 50 52 53 54 56 59 59 58 59 60 59 60 60 59 58 59 59 59 61 62 62 63 63 64 62 64 66 65 67 67 65 68 70 73 70 70 70 68 67 67 68 68 67 70 67 68 66 68 70 74 75 75 76 78 79 77 77 76 76 74 75 75 75 76 73 73 73 75 75 69 64 66 65 64 64 63
9 9 13 16 19 20 21 22 26 35 35 37 38 41 42 43 44 44 47 47 49 49 50 53 55 56 58 58 58 60 61 59 59 60 60 59 59 60 60 61 62 62 64 64 64 63 65 66 67 67 68 68 69 70 71 69 68 69 68 66 65 66 67 66 67 68 67 66 70 71 74 72 75 76 77 78 77 76 77 78 76 75 75 75 76 75 75 75 76 76 73 71 64 64 61 59 61
12 18 14 11 16 18 20 22 24 34 33 35 37 37 40 42 45 47 51 47 46 47 48 53 55 56 57 59 59 60 61 60 60 60 60 59 59 59 60 61 63 63 65 64 65 65 67 67 68 68 69 69 68 70 71 70 70 68 68 67 65 63 64 64 64 65 63 64 72 73 74 72 75 76 76 77 77 76 75 75 76 77 74 77 76 75 75 75 75 76 72 68 66 63 62 59 60
10 14 16 14 11 16 18 23 25 31 34 33 35 36 38 39 41 45 47 44 48 47 48 51 56 56 57 58 59 60 61 60 60 60 60 59 59 59 60 61 62 62 64 64 66 66 68 68 70 71 70 69 68 71 72 71 71 70 68 66 64 62 64 64 62 63 63 63 69 72 73 74 75 75 75 76 75 75 74 76 75 79 75 74 77 77 75 78 76 73 71 67 63 64 63 63 63
13 13 15 15 15 14 15 19 24 21 30 31 34 32 34 38 40 42 43 42 45 49 48 49 53 56 56 57 59 60 60 61 60 61 59 59 60 61 61 62 63 63 65 65 65 67 68 70 72 72 71 71 70 72 73 72 72 72 72 69 66 64 64 64 65 64 65 64 65 69 72 74 74 73 73 73 74 74 74 74 75 78 78 75 75 77 76 75 76 74 72 68 67 60 58 60 63
13 13 12 12 13 17 18 19 22 25 30 31 30 29 32 35 35 38 42 42 41 45 47 49 52 55 56 60 58 60 60 61 61 61 61 60 60 61 62 64 63 64 64 66 66 66 68 69 71 73 72 71 71 72 73 73 73 73 73 71 69 67 66 64 63 61 65 66 65 68 69 72 74 73 74 73 73 74 74 75 74 75 77 78 77 78 77 74 74 74 75 71 67 63 59 60 63
10 10 11 13 11 10 14 17 16 19 25 28 28 28 30 34 34 36 38 41 42 44 48 48 51 55 58 57 57 59 59 62 62 61 61 60 61 62 63 64 64 64 65 65 66 67 69 70 72 74 73 72 71 73 74 73 73 73 72 71 69 67 67 65 64 61 61 64 62 64 67 70 73 73 75 75 73 73 74 75 75 74 75 77 76 76 76 75 74 74 74 73 66 66 67 63 61
12 9 12 15 11 5 8 12 18 26 27 27 28 26 27 31 32 35 38 39 42 43 46 46 48 54 57 58 58 58 59 60 62 62 62 60 61 62 63 64 64 64 65 66 66 67 70 71 73 74 74 73 72 73 73 74 73 73 73 71 69 68 68 68 68 62 59 61 62 63 65 71 74 72 73 74 74 74 75 76 75 74 72 73 74 76 77 75 73 73 73 72 68 68 67 66 63
13 9 9 10 7 4 7 14 16 21 26 26 24 23 24 25 27 34 35 38 41 42 44 47 45 52 56 54 55 60 56 59 60 62 63 62 63 63 63 64 64 63 65 65 65 67 70 72 73 74 74 73 73 73 74 74 73 74 74 72 69 69 66 68 68 67 62 63 62 63 64 68 74 75 73 75 75 75 76 75 75 75 72 71 73 72 74 74 74 76 76 74 72 71 68 67 63
11 7 8 10 9 6 5 12 20 24 24 25 24 25 27 25 26 29 31 33 40 41 42 45 47 52 53 56 53 55 59 61 62 62 62 62 63 63 64 65 64 64 64 65 66 68 69 72 74 74 74 74 73 74 74 74 74 73 74 72 70 69 67 66 68 68 63 64 65 66 67 67 72 76 74 75 76 76 76 76 75 74 72 72 72 71 71 73 76 76 75 74 73 72 69 67 67
12 8 10 12 13 11 5 3 12 21 24 24 25 20 25 28 27 27 32 32 36 39 41 42 45 52 57 55 55 57 59 61 62 62 63 63 63 63 64 65 65 64 64 66 67 67 69 72 73 74 74 74 74 75 75 75 74 74 73 72 71 70 68 67 67 69 67 65 67 69 70 71 72 75 75 76 77 76 75 75 73 73 72 70 71 70 71 73 76 77 77 76 74 73 72 69 66
12 10 11 16 17 17 16 10 12 13 15 19 18 19 23 26 30 28 29 31 33 36 41 42 45 53 56 56 53 53 59 61 62 62 63 64 64 64 64 65 66 65 65 66 66 67 68 71 73 74 74 74 74 75 75 75 74 74 73 72 72 71 70 69 69 70 69 68 68 69 70 72 72 72 73 74 74 75 75 75 72 71 72 72 73 72 72 70 71 72 74 74 74 73 72 71 69
12 11 9 12 19 21 21 16 16 12 9 11 10 15 20 24 30 29 30 32 32 35 37 41 45 53 53 56 53 52 56 60 61 62 62 64 65 65 65 66 66 66 66 66 66 67 69 71 73 74 75 74 75 75 75 74 73 73 73 73 73 72 72 69 70 70 71 70 69 69 70 71 73 71 72 70 73 72 75 74 74 72 73 72 73 74 73 71 71 73 73 74 75 74 74 74 71
13 13 16 12 17 23 18 18 13 9 8 10 4 11 17 23 31 30 28 26 31 36 37 40 44 45 54 55 53 51 55 59 61 63 64 63 64 65 65 67 68 68 67 67 67 67 69 71 74 74 75 75 75 75 75 75 74 73 73 73 74 74 73 71 71 70 72 72 71 70 69 70 72 72 71 70 70 72 74 75 75 74 74 74 74 74 74 73 73 71 73 73 74 74 74 74 72
17 15 17 17 16 17 20 17 16 12 8 3 6 10 13 19 23 28 27 29 29 30 35 39 40 46 55 55 53 49 54 60 61 62 63 64 65 65 66 67 68 68 67 67 67 68 69 70 74 74 75 75 75 75 75 75 75 74 74 74 74 74 73 72 71 69 70 72 72 71 67 66 71 72 70 71 69 71 71 74 75 75 75 75 75 75 75 74 74 73 72 73 73 74 74 74 74
20 18 15 18 20 16 21 19 15 12 13 8 3 9 16 12 20 22 25 28 31 31 33 38 39 42 52 54 54 52 54 59 61 63 62 63 65 66 65 67 68 68 67 66 68 69 70 71 74 75 75 76 76 76 75 75 74 75 74 75 74 74 73 72 71 70 71 72 71 70 69 65 66 71 70 72 73 72 72 73 74 74 74 75 76 76 74 75 76 74 73 73 73 73 74 74 73
20 21 20 18 18 20 17 20 17 15 12 13 14 10 14 18 24 21 25 24 28 28 31 36 36 39 51 52 53 50 51 55 57 60 62 64 66 67 66 66 68 68 69 67 68 69 70 71 74 75 75 75 76 76 75 75 75 75 76 75 75 75 74 73 73 73 72 72 72 71 70 69 68 69 72 72 72 72 73 73 74 74 75 74 75 76 76 74 76 75 74 74 74 71 74 75 74
19 20 20 19 19 17 20 23 22 20 17 18 20 18 12 16 18 19 20 21 25 29 33 33 37 40 46 46 47 50 51 53 55 56 61 64 65 66 66 67 67 68 68 68 70 70 71 72 73 74 75 75 75 76 75 75 76 75 75 75 75 75 74 73 71 72 70 71 72 71 69 68 67 69 70 72 72 74 74 73 73 73 74 75 75 76 75 75 75 75 73 75 74 71 73 74 73
18 18 19 20 19 18 21 17 25 22 18 18 14 16 20 16 17 22 21 20 20 24 28 30 36 39 39 41 46 52 52 54 57 59 62 64 65 66 65 65 66 68 68 69 71 70 71 72 73 74 75 75 75 75 75 75 76 75 76 75 75 75 74 73 72 72 72 71 71 72 69 69 68 67 69 69 72 73 74 74 74 74 73 74 74 73 75 75 76 74 74 75 74 74 73 74 74
18 17 19 16 18 18 21 21 19 20 20 21 20 18 17 19 22 19 23 23 22 26 28 28 29 32 36 37 39 46 49 53 54 54 59 62 64 65 66 65 65 67 69 69 69 69 70 71 72 72 74 74 74 73 74 75 75 73 74 74 74 74 74 74 72 74 73 71 69 70 69 69 69 70 71 72 73 72 74 74 75 74 74 74 74 73 74 75 76 75 73 73 74 75 74 74 75
18 18 21 21 19 19 20 21 25 25 20 19 17 19 19 21 24 22 20 24 25 21 23 23 23 27 29 33 33 36 42 49 51 53 56 60 62 63 64 64 64 66 68 68 68 68 69 70 72 72 73 74 74 74 74 74 74 72 72 74 74 75 75 75 74 73 71 71 70 69 70 67 70 69 69 71 71 71 72 73 72 71 70 72 73 73 73 74 75 75 73 70 71 75 74 74 73
17 18 20 23 22 17 19 19 20 22 24 22 22 17 21 22 20 22 25 25 24 22 22 25 22 24 23 27 28 34 38 43 49 51 55 58 61 62 64 64 64 65 67 67 67 67 68 69 70 71 73 73 73 73 73 74 73 73 74 74 74 75 75 74 73 73 73 72 71 71 70 68 71 70 70 70 71 72 72 72 71 72 70 71 74 73 73 74 75 75 75 74 73 74 75 74 74
19 18 21 23 22 20 19 20 18 18 20 24 23 23 27 17 15 16 20 25 24 25 23 21 21 16 25 26 30 34 35 40 45 48 52 54 56 61 63 64 64 64 65 66 66 67 68 68 69 71 71 72 72 72 73 74 73 73 73 74 74 74 74 74 74 73 73 72 72 71 72 72 69 71 71 70 73 71 71 71 70 71 72 70 73 74 71 73 74 75 75 72 73 74 75 75 75